Total_Precipitation_Accumulation
0.01 0.00 0.01 0.01 0.02 0.01 0.01 0.02 0.03 0.04 0.05 0.06 0.07 0.07 0.07 0.08 0.08 0.06 0.05 0.05 0.08 0.16 0.21 0.22 0.22 0.27 0.27 0.27 0.21 0.15 0.11 0.07 0.05 0.04 0.03 0.03 0.06 0.09 0.12 0.09 0.06 0.07 0.02
0.01 0.00 0.00 0.01 0.02 0.02 0.01 0.02 0.03 0.03 0.03 0.04 0.04 0.03 0.04 0.04 0.05 0.07 0.07 0.07 0.12 0.17 0.18 0.20 0.21 0.22 0.20 0.18 0.14 0.09 0.05 0.03 0.02 0.03 0.04 0.09 0.20 0.21 0.20 0.16 0.13 0.12 0.01
0.00 0.00 0.00 0.01 0.02 0.02 0.02 0.02 0.02 0.02 0.02 0.03 0.03 0.02 0.03 0.03 0.05 0.07 0.09 0.10 0.15 0.17 0.14 0.14 0.16 0.15 0.12 0.07 0.04 0.02 0.01 0.01 0.01 0.03 0.09 0.29 0.44 0.31 0.21 0.19 0.18 0.12 0.03
0.00 0.00 0.00 0.01 0.02 0.01 0.01 0.01 0.01 0.01 0.02 0.03 0.05 0.04 0.03 0.04 0.05 0.06 0.09 0.11 0.13 0.13 0.11 0.10 0.10 0.08 0.05 0.02 0.02 0.01 0.00 0.00 0.01 0.04 0.11 0.32 0.62 0.52 0.30 0.22 0.22 0.19 0.15
0.01 0.01 0.00 0.00 0.01 0.01 0.00 0.01 0.02 0.02 0.02 0.04 0.06 0.08 0.05 0.03 0.04 0.06 0.11 0.15 0.18 0.17 0.17 0.17 0.14 0.07 0.03 0.02 0.02 0.01 0.01 0.01 0.02 0.08 0.21 0.46 0.76 0.68 0.41 0.27 0.27 0.28 0.28
0.01 0.00 0.00 0.01 0.01 0.01 0.01 0.01 0.02 0.04 0.04 0.04 0.05 0.07 0.08 0.05 0.05 0.10 0.18 0.22 0.22 0.21 0.26 0.31 0.25 0.16 0.08 0.04 0.02 0.02 0.02 0.02 0.04 0.14 0.31 0.52 0.70 0.57 0.36 0.26 0.22 0.29 0.34
0.01 0.00 0.00 0.01 0.01 0.01 0.01 0.02 0.04 0.05 0.06 0.08 0.07 0.08 0.10 0.06 0.05 0.11 0.20 0.26 0.26 0.25 0.26 0.23 0.17 0.13 0.10 0.06 0.04 0.03 0.02 0.02 0.06 0.18 0.37 0.52 0.53 0.34 0.24 0.20 0.18 0.20 0.23
0.01 0.00 0.00 0.00 0.01 0.02 0.02 0.04 0.06 0.05 0.06 0.07 0.07 0.09 0.10 0.06 0.04 0.09 0.18 0.27 0.32 0.29 0.21 0.16 0.12 0.09 0.08 0.06 0.05 0.03 0.04 0.04 0.05 0.13 0.25 0.30 0.31 0.18 0.14 0.13 0.13 0.13 0.13
0.05 0.04 0.03 0.01 0.01 0.02 0.02 0.03 0.04 0.03 0.03 0.04 0.04 0.06 0.08 0.07 0.06 0.09 0.16 0.22 0.21 0.15 0.12 0.11 0.09 0.07 0.04 0.03 0.02 0.03 0.04 0.05 0.06 0.07 0.10 0.11 0.13 0.08 0.06 0.05 0.05 0.05 0.05
0.30 0.53 0.33 0.07 0.02 0.01 0.01 0.01 0.01 0.01 0.01 0.01 0.01 0.03 0.05 0.06 0.08 0.11 0.14 0.12 0.09 0.05 0.03 0.03 0.03 0.02 0.02 0.01 0.01 0.01 0.02 0.02 0.02 0.02 0.02 0.02 0.02 0.02 0.03 0.02 0.01 0.01 0.02
0.52 0.73 0.33 0.11 0.03 0.01 0.00 0.00 0.01 0.00 0.01 0.01 0.02 0.03 0.05 0.12 0.15 0.15 0.09 0.08 0.04 0.02 0.01 0.01 0.01 0.01 0.01 0.00 0.00 0.00 0.00 0.00 0.00 0.00 0.00 0.00 0.01 0.02 0.02 0.02 0.01 0.01 0.01
0.36 0.28 0.16 0.08 0.02 0.01 0.01 0.01 0.01 0.01 0.01 0.02 0.04 0.04 0.11 0.19 0.21 0.14 0.06 0.04 0.02 0.01 0.00 0.00 0.00 0.00 0.00 0.00 0.00 0.00 0.00 0.00 0.00 0.00 0.00 0.00 0.00 0.01 0.02 0.02 0.01 0.01 0.01
0.35 0.13 0.07 0.06 0.04 0.02 0.00 0.01 0.01 0.01 0.01 0.02 0.04 0.05 0.11 0.11 0.08 0.05 0.04 0.03 0.02 0.01 0.01 0.00 0.00 0.00 0.00 0.00 0.00 0.00 0.00 0.00 0.00 0.00 0.00 0.00 0.00 0.01 0.01 0.02 0.01 0.01 0.01
0.23 0.13 0.07 0.07 0.05 0.03 0.01 0.01 0.02 0.02 0.02 0.03 0.03 0.03 0.06 0.08 0.06 0.05 0.04 0.03 0.03 0.02 0.02 0.01 0.01 0.01 0.00 0.00 0.00 0.00 0.00 0.00 0.00 0.00 0.00 0.00 0.00 0.01 0.02 0.02 0.02 0.02 0.02
0.19 0.12 0.11 0.10 0.05 0.03 0.01 0.00 0.01 0.01 0.01 0.02 0.02 0.02 0.03 0.03 0.03 0.04 0.04 0.03 0.03 0.04 0.04 0.03 0.02 0.01 0.00 0.00 0.00 0.00 0.00 0.00 0.00 0.00 0.00 0.00 0.01 0.02 0.03 0.04 0.04 0.04 0.05
0.17 0.14 0.14 0.10 0.03 0.02 0.01 0.01 0.01 0.01 0.03 0.04 0.03 0.01 0.01 0.03 0.04 0.04 0.05 0.06 0.04 0.04 0.05 0.04 0.03 0.03 0.01 0.01 0.00 0.00 0.00 0.00 0.00 0.00 0.01 0.01 0.02 0.02 0.03 0.05 0.06 0.08 0.08
0.22 0.19 0.19 0.08 0.03 0.02 0.01 0.01 0.02 0.03 0.05 0.06 0.05 0.03 0.02 0.03 0.04 0.05 0.07 0.07 0.06 0.05 0.05 0.06 0.05 0.05 0.04 0.03 0.03 0.03 0.03 0.02 0.02 0.02 0.03 0.03 0.03 0.04 0.05 0.07 0.08 0.08 0.07
0.31 0.43 0.37 0.12 0.05 0.04 0.04 0.03 0.02 0.03 0.04 0.05 0.05 0.06 0.07 0.08 0.10 0.12 0.14 0.13 0.12 0.11 0.11 0.13 0.13 0.12 0.11 0.09 0.09 0.08 0.07 0.06 0.05 0.05 0.04 0.04 0.04 0.04 0.04 0.06 0.06 0.07 0.07
0.53 0.86 0.64 0.19 0.08 0.07 0.07 0.06 0.07 0.10 0.13 0.15 0.17 0.17 0.19 0.19 0.19 0.21 0.23 0.24 0.23 0.23 0.25 0.25 0.26 0.24 0.22 0.20 0.16 0.12 0.09 0.06 0.06 0.06 0.05 0.04 0.04 0.04 0.03 0.04 0.05 0.06 0.06
0.95 1.39 0.92 0.35 0.17 0.12 0.13 0.15 0.20 0.25 0.33 0.40 0.38 0.33 0.31 0.32 0.35 0.37 0.39 0.43 0.44 0.44 0.43 0.42 0.39 0.34 0.27 0.21 0.14 0.10 0.07 0.05 0.05 0.05 0.04 0.04 0.03 0.03 0.02 0.02 0.03 0.04 0.07
0.89 1.09 0.80 0.48 0.33 0.26 0.32 0.40 0.51 0.59 0.66 0.67 0.65 0.67 0.71 0.75 0.74 0.69 0.66 0.65 0.59 0.55 0.49 0.41 0.35 0.30 0.25 0.19 0.13 0.08 0.05 0.03 0.02 0.02 0.01 0.01 0.01 0.01 0.01 0.01 0.01 0.01 0.03
0.58 0.62 0.62 0.56 0.55 0.46 0.54 0.68 0.87 1.01 1.06 1.09 1.18 1.31 1.38 1.29 1.13 1.03 0.93 0.76 0.65 0.56 0.50 0.42 0.35 0.26 0.18 0.12 0.09 0.07 0.04 0.02 0.01 0.01 0.01 0.01 0.00 0.00 0.00 0.01 0.01 0.01 0.00
0.45 0.52 0.58 0.63 0.70 0.71 0.84 0.99 1.19 1.38 1.53 1.65 1.72 1.72 1.61 1.41 1.25 1.10 0.93 0.79 0.68 0.62 0.58 0.50 0.38 0.28 0.18 0.10 0.06 0.06 0.05 0.03 0.01 0.01 0.00 0.00 0.00 0.00 0.00 0.00 0.00 0.00 0.00
0.43 0.50 0.55 0.67 0.82 0.97 1.12 1.25 1.48 1.72 1.83 1.83 1.63 1.47 1.28 1.10 0.95 0.81 0.73 0.69 0.67 0.63 0.56 0.44 0.32 0.22 0.15 0.08 0.05 0.04 0.03 0.03 0.03 0.02 0.00 0.00 0.00 0.00 0.00 0.00 0.00 0.00 0.00
0.42 0.50 0.62 0.76 0.92 1.13 1.35 1.52 1.71 1.78 1.65 1.44 1.25 1.06 0.97 0.86 0.74 0.66 0.62 0.60 0.55 0.45 0.34 0.25 0.19 0.14 0.08 0.05 0.03 0.03 0.02 0.02 0.02 0.03 0.02 0.01 0.00 0.00 0.00 0.00 0.00 0.00 0.00
0.37 0.51 0.64 0.80 0.97 1.17 1.41 1.58 1.61 1.57 1.45 1.24 1.02 0.88 0.80 0.68 0.56 0.47 0.39 0.32 0.26 0.20 0.15 0.10 0.06 0.04 0.03 0.03 0.03 0.02 0.03 0.03 0.03 0.03 0.04 0.02 0.01 0.00 0.00 0.00 0.00 0.00 0.01